Погода в Злазне

Украина / Ровненская область     50°55′43″N   26°12′51″E
темп.,
°C
ветер,
м/с
пор.,
м/с
влажн.,
%
обл.,
%
осадки,
мм/ч
давл.,
гПа
погр.,
м
27 ноября, сб
сб2723:00+6юв71380100 0.1 996918
02:00+7ююв71388100 2.9 992860
05:00+6ююз51089100 0.2 991430
08:00+6ююз51188100 0.6 992577
11:00+6юз8137771 0.0 995925
14:00+4зюз7117136 0.0 997961
17:00+3з597433 0.0 999370
20:00+1зюз33855 0.0 100158
28 ноября, вс
вс2823:00+1юз22885 0.0 100225
02:00+1ю339096 0.0 100246
05:00+3ююв3780100 0.0 1001159
08:00+4ююв3888100 0.6 1001202
11:00+5юв3491100 3.4 1001145
14:00+5в3591100 5.6 1000194
17:00+5юв2391100 0.9 99977
20:00+5ю129091 0.9 99813
29 ноября, пн
пн2923:00+4юв35915 0.0 99771
02:00+4юв3590100 0.0 99487
05:00+5юв41090100 0.0 992195
08:00+5юв4992100 0.0 990193
11:00+7з5988100 0.3 990598
14:00+3з71281100 0.7 991712
17:00+2з71281100 0.7 992969
20:00+2з81477100 0.8 9931239
30 ноября, вт
вт3023:00+1зюз91586100 0.1 9941256
02:00+1зюз101780100 0.1 9941104
05:00+1зюз111879100 0.1 9951326
08:00+1з12198187 0.2 9961164
11:00+2з11187897 0.1 9991358
14:00+1зсз101571100 0.2 10011382
17:00−1з81373100 0.0 1003938
20:00−1з7138188 0.0 1004990
1 декабря, ср
ср123:00−1з6108388 0.1 1004997
02:00−2зюз4108280 0.2 1003441
05:00−2юз51294100 0.1 1003523
08:00−1юз51296100 0.5 1002649
11:00+1юз51297100 0.6 1002480
14:00+2з61196100 0.7 1002762
17:00+2юз51298100 0.3 1002617
20:00+4юз71585100 0.8 1000649